Wind_Speed
25 25 24 22 21 21 22 19 23 23 17 15 14 14 15 15 13 8 6 6 4 13 11 17 9 8 6 1 2 2 4 2 4 4 5 6 3 3 6 8 8 8 5 9 23
28 27 26 25 24 23 21 23 25 17 15 15 15 14 13 12 9 10 14 9 11 19 19 14 6 8 2 4 4 3 4 8 5 4 6 6 3 4 3 4 4 8 7 24 29
31 31 29 28 27 26 25 26 20 16 16 18 15 11 8 7 3 6 4 11 16 19 12 10 10 7 3 4 4 6 5 6 9 14 13 9 12 4 2 10 9 6 16 19 25
34 34 33 33 31 31 30 28 19 14 18 15 10 5 2 1 3 1 3 11 19 19 10 7 5 4 3 4 5 3 8 7 8 8 7 10 5 6 10 22 10 12 23 24 26
36 36 37 36 34 32 34 25 15 20 14 9 4 1 3 1 7 4 6 15 17 19 9 6 6 5 3 3 3 6 5 4 8 8 8 13 12 8 12 13 16 14 20 22 24
37 38 39 39 38 37 31 23 25 17 5 3 3 2 2 1 1 5 10 13 12 16 9 8 7 7 3 3 1 5 7 8 7 5 6 7 9 6 8 11 10 20 23 18 16
39 41 41 41 39 38 26 29 23 5 2 2 2 3 2 8 3 7 10 5 8 12 5 9 6 2 1 5 3 5 6 9 13 5 6 7 6 6 10 6 11 18 18 20 26
40 42 43 42 42 28 27 25 6 5 5 4 3 3 6 2 4 10 12 10 8 9 9 6 8 3 4 2 8 4 4 4 6 4 5 4 9 11 11 3 11 18 19 22 28
41 43 44 43 42 25 28 9 6 6 5 4 4 2 6 4 4 7 16 7 13 12 8 4 5 3 4 4 5 6 3 4 9 3 4 3 14 11 7 5 7 14 20 21 22
41 43 44 42 35 24 26 6 6 4 4 2 1 2 4 3 4 3 11 14 3 3 3 3 4 2 3 4 3 4 3 3 6 9 11 15 9 12 6 5 7 9 16 20 19
41 43 44 40 30 21 24 2 6 4 2 3 3 4 6 8 8 5 5 7 3 6 2 3 3 7 11 9 7 4 5 6 9 16 1 10 7 8 8 3 4 5 8 15 19
40 42 44 36 22 15 19 6 5 8 8 6 9 8 14 4 4 3 8 4 2 3 3 5 5 11 3 6 7 7 4 10 9 12 6 8 9 7 6 4 4 5 4 9 14
40 41 44 38 12 13 9 7 20 10 1 8 5 4 4 11 6 5 9 4 4 2 4 6 10 4 3 7 4 4 6 6 10 3 1 2 9 8 11 5 11 9 8 9 3
39 40 43 41 5 18 7 15 21 4 4 5 4 6 4 4 3 5 11 6 2 5 4 5 4 2 6 6 6 1 7 7 6 3 4 3 3 6 9 9 16 11 11 9 11
39 40 40 29 13 6 7 20 16 4 3 2 3 0 2 3 3 2 3 3 4 4 4 7 3 7 6 5 4 7 1 3 3 4 3 4 5 7 6 9 7 6 4 8 8
39 39 39 13 14 7 15 20 2 4 1 3 1 4 2 1 3 2 3 2 1 1 1 7 3 3 3 2 4 3 5 7 5 3 4 4 4 5 3 3 7 4 4 1 6
41 40 30 14 4 10 17 3 5 2 4 5 2 4 1 4 4 5 5 3 5 2 4 6 1 3 3 7 7 12 7 4 4 5 5 4 2 7 3 3 3 7 7 8 4
42 38 23 13 11 11 5 5 1 1 4 3 4 3 3 7 3 5 2 2 1 4 2 3 6 3 6 4 2 4 5 4 4 3 6 2 4 4 6 2 4 7 7 6 7
40 29 11 4 3 3 5 3 4 2 4 6 7 5 5 4 2 8 4 2 4 2 6 2 5 3 4 2 4 5 4 4 3 3 1 3 2 6 2 1 3 7 7 9 9
33 15 8 5 3 5 5 3 2 2 7 5 1 2 4 5 5 7 5 4 2 2 3 2 2 3 5 4 5 3 3 4 4 3 3 4 3 4 5 2 1 6 7 9 10
10 5 8 4 1 5 3 4 4 5 7 2 3 2 2 2 3 3 3 1 6 5 5 4 3 5 2 2 4 5 4 4 3 3 2 1 6 4 2 3 5 7 6 8 8
6 3 3 7 4 1 1 2 6 7 4 5 5 4 2 2 1 2 2 2 8 2 2 2 4 2 4 2 5 1 5 4 4 6 2 3 6 4 3 2 3 7 7 7 7
3 3 5 3 1 3 5 5 2 4 5 6 4 2 1 3 2 3 1 4 6 6 2 1 2 3 8 6 6 4 1 3 3 3 4 3 6 3 3 5 5 7 9 7 7
2 4 4 4 1 3 4 4 5 6 3 5 4 5 4 2 1 3 4 3 5 4 8 8 3 5 5 6 2 3 4 2 5 3 4 6 7 5 6 6 6 7 7 9 8
1 3 2 3 3 3 2 2 4 7 6 7 5 4 2 4 5 3 5 6 4 6 4 4 2 5 6 7 4 5 8 4 3 7 5 7 5 5 5 8 6 6 6 9 8
1 1 4 3 3 5 3 4 5 4 3 6 3 5 4 4 3 1 2 1 4 5 3 3 3 2 5 6 7 6 9 6 5 3 4 4 6 3 6 6 5 6 6 7 7
2 2 3 3 4 2 1 3 5 6 5 3 5 3 3 5 6 7 6 4 6 2 2 3 5 3 10 5 5 7 6 5 4 4 4 4 6 5 7 6 7 6 5 7 7
Wind_Direction
6 2 358 354 350 346 343 341 334 330 326 322 317 315 315 315 309 285 243 232 191 176 163 148 180 183 160 228 121 133 74 224 219 157 236 132 229 123 270 191 182 190 237 162 178
6 3 358 355 351 346 343 339 333 332 327 319 314 312 313 315 310 247 263 206 159 157 149 151 163 152 158 205 188 109 135 220 224 218 244 157 133 169 265 284 214 242 129 142 165
7 4 1 357 352 348 343 341 338 332 326 316 311 309 309 319 298 249 311 195 186 174 173 165 141 147 195 185 213 183 204 192 257 248 248 286 285 228 254 279 233 206 132 159 168
4 3 0 357 353 348 346 342 341 338 327 323 321 314 298 27 129 351 55 135 169 178 158 163 135 168 213 222 195 217 239 221 261 241 256 248 263 232 200 240 238 179 180 159 182
2 360 358 356 352 348 344 343 341 327 320 335 348 52 124 74 252 179 140 139 154 174 189 176 154 178 213 239 330 219 264 208 241 254 220 245 262 254 236 258 243 176 177 176 180
360 358 356 354 351 347 343 340 331 329 315 359 56 109 120 265 274 188 171 153 170 172 180 179 190 207 239 262 231 282 309 286 232 232 232 195 255 160 264 250 221 172 184 168 144
357 356 355 354 352 348 342 339 329 7 70 95 100 132 112 232 17 183 186 190 198 191 161 208 185 126 17 304 289 305 346 327 303 289 303 206 314 249 269 166 161 184 182 172 184
356 355 353 352 351 349 344 343 12 80 95 104 107 134 240 183 284 197 212 236 241 232 220 217 180 174 162 261 357 9 34 9 275 306 289 84 283 285 297 176 213 186 185 190 206
354 353 352 352 353 351 351 5 67 82 99 110 107 122 277 296 233 245 217 199 223 240 249 258 154 169 53 84 6 0 248 281 311 169 13 28 295 278 328 316 269 196 190 197 213
353 352 351 351 355 356 356 54 58 62 68 67 259 343 283 302 315 204 200 208 178 120 32 162 57 83 42 82 231 213 237 254 263 298 349 314 273 292 315 298 295 214 196 199 209
351 351 350 350 355 359 12 355 15 350 53 246 259 269 274 305 303 218 157 142 131 70 130 1 94 224 228 201 209 197 191 235 271 282 230 268 278 288 303 297 315 208 192 195 205
348 348 347 349 351 10 34 61 28 280 309 237 236 252 265 256 310 300 152 129 128 186 140 21 250 245 240 210 209 205 230 265 278 263 145 271 290 288 285 326 282 251 226 221 229
346 345 345 345 352 359 348 41 357 4 11 299 220 211 216 149 212 251 141 156 187 221 181 162 247 318 243 268 252 208 181 239 218 290 203 4 328 352 330 73 40 356 7 16 263
343 343 343 343 357 339 311 343 341 32 49 282 287 276 169 183 255 223 188 148 171 211 191 212 271 240 282 234 149 311 210 212 226 72 298 68 277 340 330 336 45 26 24 4 359
340 340 339 339 307 304 321 330 337 90 40 192 244 293 355 141 323 294 164 81 237 241 88 252 293 337 350 283 175 248 242 277 66 96 37 7 88 261 1 349 24 27 45 350 344
336 337 334 328 307 311 329 330 84 40 345 358 50 350 356 316 265 317 136 110 106 91 167 249 229 134 237 309 84 284 23 41 52 81 27 248 122 294 306 264 305 22 30 139 303
333 334 326 307 267 315 331 21 37 121 336 324 321 350 344 277 284 180 198 195 186 66 311 322 6 359 23 20 350 43 46 352 7 6 233 155 50 232 260 272 253 298 339 330 356
333 334 323 306 283 306 359 50 107 345 339 327 340 328 74 2 358 320 60 279 244 89 86 267 333 30 335 119 245 33 114 156 256 218 255 128 195 247 196 201 293 304 307 303 351
335 337 334 15 48 62 67 65 203 26 322 310 331 33 343 353 68 26 11 24 22 122 169 128 302 337 21 17 97 321 4 200 160 2 52 287 347 319 248 344 351 315 324 316 302
335 331 325 339 113 43 71 236 260 299 351 332 50 85 345 316 34 20 4 358 37 90 152 170 354 0 318 36 24 103 271 5 10 1 316 307 273 239 268 239 337 320 323 313 301
348 3 25 53 241 43 110 240 281 290 328 297 299 248 242 332 11 336 302 339 28 343 49 126 113 279 83 86 280 5 27 19 115 126 170 285 279 251 264 264 305 292 318 306 303
1 346 356 357 37 29 125 236 297 304 318 281 217 211 171 95 292 300 259 275 344 249 241 35 137 195 250 279 291 166 109 112 100 300 240 175 266 275 266 313 253 289 301 292 304
357 266 348 351 111 334 309 301 280 307 311 356 312 294 226 153 341 194 8 7 7 55 72 222 6 11 350 357 2 91 100 136 109 77 231 181 268 215 334 332 292 285 299 301 278
20 344 323 40 45 113 2 296 318 302 275 338 276 346 10 337 272 314 343 17 5 80 62 88 99 149 192 221 235 298 305 313 132 150 237 226 273 267 263 271 278 281 281 291 279
66 273 206 318 335 343 254 290 337 1 349 339 328 29 237 26 8 44 6 331 23 5 38 93 199 193 227 241 231 246 287 284 235 234 209 287 217 264 276 280 275 265 273 272 270
136 11 350 289 314 326 355 33 9 332 253 336 10 355 55 113 151 323 23 31 261 331 46 20 260 216 263 258 266 270 265 257 247 263 267 282 279 236 278 275 292 294 309 316 300
324 329 113 288 340 14 219 1 316 355 301 336 292 273 298 209 195 200 197 202 223 236 233 193 158 145 275 253 327 307 225 190 231 206 191 243 240 324 306 295 271 290 303 300 296
Height
796 792 787 783 780 776 773 770 767 763 760 758 757 755 753 752 751 749 747 741 740 742 746 749 754 756 757 757 757 761 786 794 777 777 767 747 752 738 734 729 730 731 733 736 749
796 791 786 782 778 774 771 768 764 760 758 756 754 752 751 749 747 744 735 737 740 741 745 747 753 756 762 760 760 770 791 783 761 754 753 744 744 741 745 737 736 730 726 731 745
795 790 785 781 776 772 768 765 760 757 755 753 751 750 749 748 747 734 731 732 738 742 744 745 748 753 763 758 758 762 777 761 754 746 741 745 742 737 744 744 733 734 734 734 744
794 789 784 779 774 769 765 760 757 755 752 749 748 748 747 748 757 732 731 730 737 742 744 745 749 757 763 764 752 764 751 748 746 741 745 746 738 738 737 722 716 721 719 725 735
793 788 782 776 771 766 761 756 754 751 748 747 746 746 747 749 741 732 732 733 737 741 742 744 750 754 761 755 752 756 746 740 737 736 740 734 739 735 728 715 710 715 718 724 729
792 786 780 774 768 762 756 752 749 746 745 746 746 746 747 753 730 731 732 734 734 738 740 742 745 744 750 752 755 744 743 742 737 733 732 740 735 735 718 705 705 710 716 726 743
790 784 777 771 765 758 752 748 743 742 743 744 745 746 747 741 730 730 732 733 734 735 738 737 739 744 746 753 742 743 755 745 736 730 734 729 740 734 710 707 712 713 717 724 721
788 782 775 769 762 755 750 744 740 741 742 743 744 746 746 729 730 730 731 732 733 734 735 735 738 741 747 742 751 758 763 778 743 733 730 730 758 724 708 711 713 712 715 716 713
787 780 774 767 759 753 748 743 742 742 743 743 745 746 741 729 727 724 727 729 730 732 732 735 737 747 750 767 782 782 789 777 762 734 737 738 751 718 709 710 711 709 711 712 712
787 780 772 766 759 753 747 744 743 744 744 744 745 749 730 731 725 724 724 727 729 731 736 738 751 763 773 782 802 786 784 777 775 745 740 746 749 725 714 711 709 709 707 708 711
786 779 772 766 760 756 748 746 750 750 744 744 745 743 734 727 723 722 723 726 728 736 756 749 769 780 768 767 763 766 776 780 764 742 752 750 748 728 717 712 707 706 708 707 705
786 780 773 766 762 759 755 756 766 765 762 738 737 737 730 731 735 722 721 733 737 754 748 764 774 752 749 753 762 768 776 776 761 743 755 749 740 726 718 713 706 705 708 706 701
786 780 773 766 762 761 760 762 761 759 770 745 733 732 724 727 732 727 720 729 741 751 754 770 752 737 746 751 758 764 772 767 766 745 744 744 755 743 720 718 720 714 708 707 706
786 781 774 767 765 762 761 760 758 756 786 753 737 726 721 720 732 714 715 726 737 749 750 759 740 741 745 749 748 762 743 744 750 761 781 750 794 756 748 737 739 734 725 721 715
786 781 774 770 768 765 761 758 756 757 801 740 732 717 718 729 725 720 714 722 740 740 745 755 744 746 750 743 732 750 733 741 742 764 766 766 788 767 759 754 752 750 739 728 721
784 779 773 768 766 762 759 756 756 786 790 748 731 735 735 729 727 718 720 718 723 736 741 745 729 733 737 731 730 729 738 756 771 779 797 770 779 780 769 757 753 745 743 736 730
780 774 768 765 763 760 758 757 789 795 749 760 750 742 743 743 734 730 734 741 755 767 768 753 741 732 730 743 735 746 770 803 797 807 803 775 780 773 752 748 747 746 740 732 727
775 768 763 759 758 759 758 774 789 768 768 745 747 746 751 748 743 739 740 754 743 752 773 777 778 745 736 745 752 757 773 802 808 813 796 773 783 765 745 741 742 740 736 732 725
773 764 760 759 758 759 768 796 786 771 763 761 754 763 765 753 748 751 755 756 750 746 771 777 770 743 738 735 743 761 778 764 789 792 797 788 762 748 743 745 743 742 737 732 728
777 770 763 762 761 761 781 793 781 762 760 758 768 761 772 764 761 764 761 748 747 743 744 761 781 757 747 740 746 754 754 783 795 802 798 794 775 776 752 749 748 745 740 733 727
781 780 767 764 765 773 794 791 774 758 757 763 763 763 762 765 761 763 760 747 743 743 742 757 774 771 758 766 768 775 776 781 790 802 808 813 794 755 749 744 747 743 739 736 730
790 793 767 766 784 797 792 779 768 761 753 756 753 755 759 760 764 761 761 752 741 738 752 756 780 789 771 757 756 760 771 785 806 804 803 805 795 750 743 743 743 743 740 735 727
803 796 769 768 795 797 787 777 768 765 761 759 759 750 749 758 767 761 755 744 740 748 756 754 782 800 790 775 764 765 766 769 789 801 796 804 789 747 746 746 744 744 738 733 728
804 802 783 779 787 787 790 784 779 760 761 759 758 753 758 761 759 763 762 749 745 748 751 755 787 789 805 787 775 775 768 763 779 802 792 790 770 756 748 748 743 741 738 734 729
806 804 799 803 793 792 788 784 782 782 766 763 762 764 764 773 774 774 769 763 753 754 752 762 779 778 777 774 770 768 766 762 769 773 782 763 766 752 749 746 741 740 737 732 726
807 806 802 802 798 792 790 789 787 782 776 773 770 765 764 770 770 773 769 769 768 761 759 770 780 774 776 764 762 765 759 758 758 756 759 757 760 743 742 740 738 737 734 730 724
804 804 804 802 800 797 794 792 787 784 772 766 767 767 767 763 757 756 756 758 759 762 770 773 781 788 781 769 769 778 759 754 755 754 757 767 751 746 742 739 736 735 734 731 724